Time,TemperatureF,DewpointF,PressureIn,WindDirection,WindDirectionDegrees,WindSpeedMPH,WindSpeedGustMPH,Humidity,HourlyPrecipIn,Conditions,Clouds,dailyrainin,SoftwareType,DateUTC
2013-11-08 00:00:00,37.6,32.0,29.83,West,279,0.0,2.0,80,0.00,,---,0.02,VWS V14.01,2013-11-08 05:00:00,
2013-11-08 00:05:00,37.6,32.0,29.83,SSE,156,0.0,3.0,80,0.00,,---,0.00,VWS V14.01,2013-11-08 05:05:00,
2013-11-08 00:10:00,37.6,31.7,29.83,SSE,156,0.0,1.0,79,0.00,,---,0.00,VWS V14.01,2013-11-08 05:10:00,
2013-11-08 00:15:00,37.7,31.8,29.83,SSE,156,0.0,0.0,79,0.00,,---,0.00,VWS V14.01,2013-11-08 05:15:00,
2013-11-08 00:20:00,37.7,31.8,29.83,SSE,156,0.0,1.0,79,0.00,,---,0.00,VWS V14.01,2013-11-08 05:20:00,
2013-11-08 00:25:00,37.4,31.8,29.82,SSE,156,0.0,0.0,80,0.00,,---,0.00,VWS V14.01,2013-11-08 05:25:00,
2013-11-08 00:30:00,37.1,31.8,29.83,SSE,156,0.0,0.0,81,0.00,,---,0.00,VWS V14.01,2013-11-08 05:30:00,
2013-11-08 00:35:00,36.8,31.8,29.82,SSE,156,0.0,0.0,82,0.00,,---,0.00,VWS V14.01,2013-11-08 05:35:00,
2013-11-08 00:40:00,36.4,31.7,29.83,SSE,156,0.0,0.0,83,0.00,,---,0.00,VWS V14.01,2013-11-08 05:40:00,
2013-11-08 00:45:00,36.0,31.4,29.83,SSE,156,0.0,0.0,83,0.00,,---,0.00,VWS V14.01,2013-11-08 05:45:00,
2013-11-08 00:55:00,35.2,31.1,29.83,SSE,156,0.0,0.0,85,0.00,,---,0.00,VWS V14.01,2013-11-08 05:55:00,
2013-11-08 01:00:00,35.0,31.2,29.83,SSE,158,0.0,2.0,86,0.00,,---,0.00,VWS V14.01,2013-11-08 06:00:00,
2013-11-08 01:10:00,35.5,30.6,29.84,NW,322,0.0,2.0,82,0.00,,---,0.00,VWS V14.01,2013-11-08 06:10:00,
2013-11-08 01:15:00,35.8,30.5,29.84,NNW,331,0.0,2.0,81,0.00,,---,0.00,VWS V14.01,2013-11-08 06:15:00,
2013-11-08 01:20:00,36.1,30.2,29.84,North,350,0.0,2.0,79,0.00,,---,0.00,VWS V14.01,2013-11-08 06:20:00,
2013-11-08 01:25:00,36.3,30.1,29.84,West,279,0.0,3.0,78,0.00,,---,0.00,VWS V14.01,2013-11-08 06:25:00,
2013-11-08 01:35:00,36.6,30.1,29.84,West,279,0.0,0.0,77,0.00,,---,0.00,VWS V14.01,2013-11-08 06:35:00,
2013-11-08 01:40:00,36.4,29.9,29.84,West,279,0.0,2.0,77,0.00,,---,0.00,VWS V14.01,2013-11-08 06:40:00,
2013-11-08 01:45:00,36.5,29.7,29.84,WNW,290,0.0,2.0,76,0.00,,---,0.00,VWS V14.01,2013-11-08 06:45:00,
2013-11-08 01:50:00,36.6,29.4,29.85,NW,312,0.0,4.0,75,0.00,,---,0.00,VWS V14.01,2013-11-08 06:50:00,
2013-11-08 01:55:00,36.9,29.4,29.85,NW,305,2.0,5.0,74,0.00,,---,0.00,VWS V14.01,2013-11-08 06:55:00,
2013-11-08 02:00:00,37.0,29.2,29.85,NNE,12,0.0,5.0,73,0.00,,---,0.00,VWS V14.01,2013-11-08 07:00:00,
2013-11-08 02:05:00,36.9,29.4,29.85,NNE,30,0.0,4.0,74,0.00,,---,0.00,VWS V14.01,2013-11-08 07:05:00,
2013-11-08 02:10:00,36.8,29.3,29.85,WNW,294,0.0,3.0,74,0.00,,---,0.00,VWS V14.01,2013-11-08 07:10:00,
2013-11-08 02:15:00,36.8,29.3,29.85,NNW,344,0.0,2.0,74,0.00,,---,0.00,VWS V14.01,2013-11-08 07:15:00,
2013-11-08 02:25:00,36.8,29.0,29.84,West,269,0.0,5.0,73,0.00,,---,0.00,VWS V14.01,2013-11-08 07:25:00,
2013-11-08 02:30:00,36.8,28.6,29.85,West,270,3.0,4.0,72,0.00,,---,0.00,VWS V14.01,2013-11-08 07:30:00,
2013-11-08 02:35:00,36.9,28.4,29.85,West,281,0.0,6.0,71,0.00,,---,0.00,VWS V14.01,2013-11-08 07:35:00,
2013-11-08 02:40:00,36.9,28.0,29.85,NNW,329,0.0,9.0,70,0.00,,---,0.00,VWS V14.01,2013-11-08 07:40:00,
2013-11-08 02:45:00,36.9,27.7,29.85,West,274,0.0,2.0,69,0.00,,---,0.00,VWS V14.01,2013-11-08 07:45:00,
2013-11-08 02:50:00,36.7,27.9,29.85,South,169,0.0,2.0,70,0.00,,---,0.00,VWS V14.01,2013-11-08 07:50:00,
2013-11-08 02:55:00,36.5,27.7,29.85,North,353,0.0,3.0,70,0.00,,---,0.00,VWS V14.01,2013-11-08 07:55:00,
2013-11-08 03:00:00,36.2,27.4,29.85,North,353,0.0,1.0,70,0.00,,---,0.00,VWS V14.01,2013-11-08 08:00:00,
2013-11-08 03:05:00,36.0,27.2,29.86,SW,235,0.0,2.0,70,0.00,,---,0.00,VWS V14.01,2013-11-08 08:05:00,
2013-11-08 03:10:00,35.8,26.3,29.86,NNE,13,0.0,4.0,68,0.00,,---,0.00,VWS V14.01,2013-11-08 08:10:00,
2013-11-08 03:15:00,35.9,26.0,29.86,ENE,59,0.0,2.0,67,0.00,,---,0.00,VWS V14.01,2013-11-08 08:15:00,
2013-11-08 03:20:00,35.9,26.4,29.86,WNW,297,0.0,3.0,68,0.00,,---,0.00,VWS V14.01,2013-11-08 08:20:00,
2013-11-08 03:25:00,35.8,25.9,29.86,NE,48,3.0,4.0,67,0.00,,---,0.00,VWS V14.01,2013-11-08 08:25:00,
2013-11-08 03:30:00,35.8,25.6,29.86,West,263,0.0,3.0,66,0.00,,---,0.00,VWS V14.01,2013-11-08 08:30:00,
2013-11-08 03:35:00,35.8,25.6,29.86,NNW,343,0.0,5.0,66,0.00,,---,0.00,VWS V14.01,2013-11-08 08:35:00,
2013-11-08 03:40:00,35.6,26.1,29.87,NW,316,0.0,0.0,68,0.00,,---,0.00,VWS V14.01,2013-11-08 08:40:00,
2013-11-08 03:45:00,35.3,25.5,29.87,WNW,299,0.0,3.0,67,0.00,,---,0.00,VWS V14.01,2013-11-08 08:45:00,
2013-11-08 03:50:00,35.4,25.5,29.87,WNW,299,0.0,1.0,67,0.00,,---,0.00,VWS V14.01,2013-11-08 08:50:00,
2013-11-08 03:55:00,35.2,26.1,29.88,West,281,2.0,2.0,69,0.00,,---,0.00,VWS V14.01,2013-11-08 08:55:00,
2013-11-08 04:00:00,35.0,26.2,29.88,West,281,0.0,2.0,70,0.00,,---,0.00,VWS V14.01,2013-11-08 09:00:00,
2013-11-08 04:05:00,34.6,25.8,29.88,West,281,1.0,2.0,70,0.00,,---,0.00,VWS V14.01,2013-11-08 09:05:00,
2013-11-08 04:10:00,34.5,26.4,29.89,WNW,288,1.0,3.0,72,0.00,,---,0.00,VWS V14.01,2013-11-08 09:10:00,
2013-11-08 04:15:00,34.3,26.6,29.89,WNW,288,0.0,1.0,73,0.00,,---,0.00,VWS V14.01,2013-11-08 09:15:00,
2013-11-08 04:20:00,34.0,25.9,29.89,WNW,288,0.0,1.0,72,0.00,,---,0.00,VWS V14.01,2013-11-08 09:20:00,
2013-11-08 04:25:00,33.7,26.3,29.89,WNW,288,0.0,0.0,74,0.00,,---,0.00,VWS V14.01,2013-11-08 09:25:00,
2013-11-08 04:30:00,33.4,26.0,29.89,WNW,288,0.0,0.0,74,0.00,,---,0.00,VWS V14.01,2013-11-08 09:30:00,
2013-11-08 04:35:00,33.0,26.3,29.89,WNW,288,0.0,0.0,76,0.00,,---,0.00,VWS V14.01,2013-11-08 09:35:00,
2013-11-08 04:40:00,32.6,26.2,29.90,WNW,288,0.0,0.0,77,0.00,,---,0.00,VWS V14.01,2013-11-08 09:40:00,
2013-11-08 04:45:00,32.2,26.1,29.90,WNW,288,0.0,0.0,78,0.00,,---,0.00,VWS V14.01,2013-11-08 09:45:00,
2013-11-08 04:50:00,31.8,25.7,29.90,WNW,288,0.0,0.0,78,0.00,,---,0.00,VWS V14.01,2013-11-08 09:50:00,
2013-11-08 04:55:00,31.5,25.8,29.90,WNW,288,0.0,0.0,79,0.00,,---,0.00,VWS V14.01,2013-11-08 09:55:00,
2013-11-08 05:00:00,31.2,25.8,29.90,WNW,288,0.0,0.0,80,0.00,,---,0.00,VWS V14.01,2013-11-08 10:00:00,
2013-11-08 05:05:00,30.9,25.8,29.90,WNW,288,0.0,1.0,81,0.00,,---,0.00,VWS V14.01,2013-11-08 10:05:00,
2013-11-08 05:10:00,30.7,25.6,29.90,WNW,288,0.0,0.0,81,0.00,,---,0.00,VWS V14.01,2013-11-08 10:10:00,
2013-11-08 05:15:00,30.5,26.0,29.90,WNW,288,0.0,0.0,83,0.00,,---,0.00,VWS V14.01,2013-11-08 10:15:00,
2013-11-08 05:20:00,30.5,26.0,29.90,WNW,288,0.0,1.0,83,0.00,,---,0.00,VWS V14.01,2013-11-08 10:20:00,
2013-11-08 05:25:00,30.4,26.1,29.90,WNW,288,0.0,0.0,84,0.00,,---,0.00,VWS V14.01,2013-11-08 10:25:00,
2013-11-08 05:30:00,30.3,26.1,29.90,WNW,288,0.0,0.0,84,0.00,,---,0.00,VWS V14.01,2013-11-08 10:30:00,
2013-11-08 05:35:00,30.1,25.9,29.90,WNW,288,0.0,0.0,84,0.00,,---,0.00,VWS V14.01,2013-11-08 10:35:00,
2013-11-08 05:40:00,30.0,25.8,29.91,WNW,288,0.0,0.0,84,0.00,,---,0.00,VWS V14.01,2013-11-08 10:40:00,
2013-11-08 05:45:00,29.8,25.9,29.91,WNW,288,0.0,0.0,85,0.00,,---,0.00,VWS V14.01,2013-11-08 10:45:00,
2013-11-08 05:50:00,29.7,25.8,29.91,WNW,288,0.0,0.0,85,0.00,,---,0.00,VWS V14.01,2013-11-08 10:50:00,
2013-11-08 05:55:00,29.5,25.6,29.91,WNW,288,0.0,0.0,85,0.00,,---,0.00,VWS V14.01,2013-11-08 10:55:00,
2013-11-08 06:00:00,29.3,25.4,29.91,WNW,288,0.0,0.0,85,0.00,,---,0.00,VWS V14.01,2013-11-08 11:00:00,
2013-11-08 06:05:00,29.2,25.5,29.91,WNW,288,0.0,0.0,86,0.00,,---,0.00,VWS V14.01,2013-11-08 11:05:00,
2013-11-08 06:10:00,29.1,25.4,29.91,WNW,288,0.0,0.0,86,0.00,,---,0.00,VWS V14.01,2013-11-08 11:10:00,
2013-11-08 06:15:00,29.1,25.4,29.91,WNW,288,0.0,0.0,86,0.00,,---,0.00,VWS V14.01,2013-11-08 11:15:00,
2013-11-08 06:20:00,29.0,25.4,29.92,WNW,288,0.0,0.0,86,0.00,,---,0.00,VWS V14.01,2013-11-08 11:20:00,
2013-11-08 06:25:00,28.9,25.5,29.92,WNW,288,0.0,0.0,87,0.00,,---,0.00,VWS V14.01,2013-11-08 11:25:00,
2013-11-08 06:30:00,28.8,25.4,29.93,WNW,288,0.0,0.0,87,0.00,,---,0.00,VWS V14.01,2013-11-08 11:30:00,
2013-11-08 06:35:00,28.8,25.4,29.93,WNW,288,0.0,0.0,87,0.00,,---,0.00,VWS V14.01,2013-11-08 11:35:00,
2013-11-08 06:40:00,28.7,25.3,29.93,WNW,288,0.0,0.0,87,0.00,,---,0.00,VWS V14.01,2013-11-08 11:40:00,
2013-11-08 06:45:00,28.7,25.3,29.93,WNW,288,0.0,0.0,87,0.00,,---,0.00,VWS V14.01,2013-11-08 11:45:00,
2013-11-08 06:55:00,28.8,25.7,29.94,WNW,288,0.0,0.0,88,0.00,,---,0.00,VWS V14.01,2013-11-08 11:55:00,
2013-11-08 07:00:00,29.1,25.7,29.94,SW,224,0.0,1.0,87,0.00,,---,0.00,VWS V14.01,2013-11-08 12:00:00,
2013-11-08 07:05:00,29.7,26.0,29.94,SW,224,0.0,1.0,86,0.00,,---,0.00,VWS V14.01,2013-11-08 12:05:00,
2013-11-08 07:10:00,30.0,26.3,29.94,SW,224,0.0,1.0,86,0.00,,---,0.00,VWS V14.01,2013-11-08 12:10:00,
2013-11-08 07:15:00,30.3,26.6,29.94,SW,224,0.0,0.0,86,0.00,,---,0.00,VWS V14.01,2013-11-08 12:15:00,
2013-11-08 07:20:00,30.6,26.4,29.93,SW,224,0.0,0.0,84,0.00,,---,0.00,VWS V14.01,2013-11-08 12:20:00,
2013-11-08 07:25:00,30.9,26.6,29.94,SW,224,0.0,0.0,84,0.00,,---,0.00,VWS V14.01,2013-11-08 12:25:00,
2013-11-08 07:30:00,31.2,26.4,29.93,SW,224,0.0,0.0,82,0.00,,---,0.00,VWS V14.01,2013-11-08 12:30:00,
2013-11-08 07:35:00,31.9,26.7,29.93,SW,224,0.0,2.0,81,0.00,,---,0.00,VWS V14.01,2013-11-08 12:35:00,
2013-11-08 07:40:00,32.7,26.6,29.93,SW,224,0.0,0.0,78,0.00,,---,0.00,VWS V14.01,2013-11-08 12:40:00,
2013-11-08 07:45:00,33.4,26.3,29.93,SW,224,0.0,1.0,75,0.00,,---,0.00,VWS V14.01,2013-11-08 12:45:00,
2013-11-08 07:50:00,34.6,26.5,29.93,WSW,237,0.0,5.0,72,0.00,,---,0.00,VWS V14.01,2013-11-08 12:50:00,
2013-11-08 07:55:00,35.3,26.9,29.93,NW,321,0.0,3.0,71,0.00,,---,0.00,VWS V14.01,2013-11-08 12:55:00,
2013-11-08 08:00:00,36.0,27.2,29.93,SW,235,2.0,3.0,70,0.00,,---,0.00,VWS V14.01,2013-11-08 13:00:00,
2013-11-08 08:05:00,36.7,27.9,29.93,NE,40,0.0,4.0,70,0.00,,---,0.00,VWS V14.01,2013-11-08 13:05:00,
2013-11-08 08:10:00,37.4,27.5,29.93,NNE,21,2.0,6.0,67,0.00,,---,0.00,VWS V14.01,2013-11-08 13:10:00,
2013-11-08 08:15:00,37.8,27.8,29.93,NNW,341,1.0,4.0,67,0.00,,---,0.00,VWS V14.01,2013-11-08 13:15:00,
2013-11-08 08:20:00,38.1,28.5,29.93,NNE,24,1.0,5.0,68,0.00,,---,0.00,VWS V14.01,2013-11-08 13:20:00,
2013-11-08 08:25:00,38.4,28.4,29.93,SSW,198,0.0,9.0,67,0.00,,---,0.00,VWS V14.01,2013-11-08 13:25:00,
2013-11-08 08:30:00,38.7,29.1,29.93,SSW,211,1.0,6.0,68,0.00,,---,0.00,VWS V14.01,2013-11-08 13:30:00,
2013-11-08 08:40:00,39.5,30.2,29.93,NNE,26,2.0,10.0,69,0.00,,---,0.00,VWS V14.01,2013-11-08 13:40:00,
2013-11-08 08:50:00,39.7,30.4,29.93,NNW,331,0.0,5.0,69,0.00,,---,0.00,VWS V14.01,2013-11-08 13:50:00,
2013-11-08 08:55:00,39.8,30.5,29.93,North,3,3.0,6.0,69,0.00,,---,0.00,VWS V14.01,2013-11-08 13:55:00,
2013-11-08 09:00:00,39.9,30.6,29.93,NE,48,3.0,6.0,69,0.00,,---,0.00,VWS V14.01,2013-11-08 14:00:00,
2013-11-08 09:05:00,39.9,30.9,29.93,West,264,0.0,7.0,70,0.00,,---,0.00,VWS V14.01,2013-11-08 14:05:00,
2013-11-08 09:10:00,40.0,31.4,29.93,NNE,30,2.0,6.0,71,0.00,,---,0.00,VWS V14.01,2013-11-08 14:10:00,
2013-11-08 09:20:00,40.6,32.0,29.93,North,350,2.0,6.0,71,0.00,,---,0.00,VWS V14.01,2013-11-08 14:20:00,
2013-11-08 09:25:00,40.9,32.2,29.93,WNW,298,3.0,5.0,71,0.00,,---,0.00,VWS V14.01,2013-11-08 14:25:00,
2013-11-08 09:30:00,41.0,32.3,29.93,WSW,241,0.0,4.0,71,0.00,,---,0.00,VWS V14.01,2013-11-08 14:30:00,
2013-11-08 09:35:00,41.1,32.8,29.93,NNW,330,0.0,5.0,72,0.00,,---,0.00,VWS V14.01,2013-11-08 14:35:00,
2013-11-08 09:40:00,41.3,33.3,29.93,West,274,3.0,3.0,73,0.00,,---,0.00,VWS V14.01,2013-11-08 14:40:00,
2013-11-08 09:45:00,41.4,33.4,29.93,NW,308,3.0,9.0,73,0.00,,---,0.00,VWS V14.01,2013-11-08 14:45:00,
2013-11-08 09:50:00,41.6,33.6,29.92,WNW,289,3.0,7.0,73,0.00,,---,0.00,VWS V14.01,2013-11-08 14:50:00,
2013-11-08 09:55:00,42.1,34.1,29.92,SSW,196,4.0,7.0,73,0.00,,---,0.00,VWS V14.01,2013-11-08 14:55:00,
2013-11-08 10:00:00,42.7,34.3,29.92,NNE,15,4.0,5.0,72,0.00,,---,0.00,VWS V14.01,2013-11-08 15:00:00,
2013-11-08 10:05:00,42.8,34.1,29.92,WSW,244,2.0,7.0,71,0.00,,---,0.00,VWS V14.01,2013-11-08 15:05:00,
2013-11-08 10:10:00,43.1,34.3,29.92,North,356,3.0,10.0,71,0.00,,---,0.00,VWS V14.01,2013-11-08 15:10:00,
2013-11-08 10:15:00,43.5,34.0,29.92,East,97,1.0,11.0,69,0.00,,---,0.00,VWS V14.01,2013-11-08 15:15:00,
2013-11-08 10:20:00,43.7,33.8,29.92,WSW,252,6.0,8.0,68,0.00,,---,0.00,VWS V14.01,2013-11-08 15:20:00,
2013-11-08 10:25:00,43.9,34.0,29.91,NNW,348,1.0,7.0,68,0.00,,---,0.00,VWS V14.01,2013-11-08 15:25:00,
2013-11-08 10:30:00,44.3,34.4,29.91,NNE,30,7.0,9.0,68,0.00,,---,0.00,VWS V14.01,2013-11-08 15:30:00,
2013-11-08 10:35:00,44.7,34.0,29.91,NW,309,5.0,9.0,66,0.00,,---,0.00,VWS V14.01,2013-11-08 15:35:00,
2013-11-08 10:45:00,45.1,33.3,29.91,NNE,18,8.0,11.0,63,0.00,,---,0.00,VWS V14.01,2013-11-08 15:45:00,
2013-11-08 10:50:00,45.4,33.6,29.91,ENE,66,1.0,10.0,63,0.00,,---,0.00,VWS V14.01,2013-11-08 15:50:00,
2013-11-08 10:55:00,45.6,33.8,29.91,NNW,328,2.0,13.0,63,0.00,,---,0.00,VWS V14.01,2013-11-08 15:55:00,
2013-11-08 11:00:00,45.7,33.4,29.91,NE,55,5.0,13.0,62,0.00,,---,0.00,VWS V14.01,2013-11-08 16:00:00,
2013-11-08 11:05:00,46.1,33.8,29.91,West,265,0.0,11.0,62,0.00,,---,0.00,VWS V14.01,2013-11-08 16:05:00,
2013-11-08 11:15:00,46.8,34.1,29.91,West,276,0.0,15.0,61,0.00,,---,0.00,VWS V14.01,2013-11-08 16:15:00,
2013-11-08 11:20:00,46.2,32.7,29.90,NNW,347,3.0,14.0,59,0.00,,---,0.00,VWS V14.01,2013-11-08 16:20:00,
2013-11-08 11:25:00,45.8,31.9,29.90,NW,310,2.0,10.0,58,0.00,,---,0.00,VWS V14.01,2013-11-08 16:25:00,
2013-11-08 11:35:00,46.2,32.7,29.90,ESE,121,5.0,10.0,59,0.00,,---,0.00,VWS V14.01,2013-11-08 16:35:00,
2013-11-08 11:40:00,47.0,31.7,29.90,West,277,5.0,7.0,55,0.00,,---,0.00,VWS V14.01,2013-11-08 16:40:00,
2013-11-08 11:45:00,47.8,33.3,29.89,West,261,5.0,10.0,57,0.00,,---,0.00,VWS V14.01,2013-11-08 16:45:00,
2013-11-08 11:50:00,47.6,31.8,29.89,WNW,289,9.0,13.0,54,0.00,,---,0.00,VWS V14.01,2013-11-08 16:50:00,
2013-11-08 11:55:00,47.2,32.3,29.89,NNW,340,5.0,13.0,56,0.00,,---,0.00,VWS V14.01,2013-11-08 16:55:00,
2013-11-08 12:00:00,46.8,31.5,29.89,SSW,206,2.0,9.0,55,0.00,,---,0.00,VWS V14.01,2013-11-08 17:00:00,
2013-11-08 12:05:00,46.1,30.9,29.89,NNW,347,4.0,14.0,55,0.00,,---,0.00,VWS V14.01,2013-11-08 17:05:00,
2013-11-08 12:10:00,45.6,30.4,29.89,NW,319,2.0,11.0,55,0.00,,---,0.00,VWS V14.01,2013-11-08 17:10:00,
2013-11-08 12:15:00,45.6,30.4,29.89,North,2,3.0,9.0,55,0.00,,---,0.00,VWS V14.01,2013-11-08 17:15:00,
2013-11-08 12:20:00,45.5,30.7,29.89,NNW,337,0.0,9.0,56,0.00,,---,0.00,VWS V14.01,2013-11-08 17:20:00,
2013-11-08 12:25:00,45.7,30.5,29.88,NW,313,5.0,6.0,55,0.00,,---,0.00,VWS V14.01,2013-11-08 17:25:00,
2013-11-08 12:30:00,45.9,30.2,29.88,West,268,3.0,8.0,54,0.00,,---,0.00,VWS V14.01,2013-11-08 17:30:00,
2013-11-08 12:40:00,46.6,29.9,29.88,NNW,348,9.0,15.0,52,0.00,,---,0.00,VWS V14.01,2013-11-08 17:40:00,
2013-11-08 12:45:00,46.3,30.1,29.88,East,94,3.0,10.0,53,0.00,,---,0.00,VWS V14.01,2013-11-08 17:45:00,
2013-11-08 12:50:00,46.0,29.8,29.88,NW,320,1.0,13.0,53,0.00,,---,0.00,VWS V14.01,2013-11-08 17:50:00,
2013-11-08 12:55:00,46.0,29.8,29.87,NNW,338,3.0,11.0,53,0.00,,---,0.00,VWS V14.01,2013-11-08 17:55:00,
2013-11-08 13:00:00,46.4,30.7,29.88,NNW,340,4.0,9.0,54,0.00,,---,0.00,VWS V14.01,2013-11-08 18:00:00,
2013-11-08 13:05:00,47.4,31.6,29.88,SSW,213,15.0,15.0,54,0.00,,---,0.00,VWS V14.01,2013-11-08 18:05:00,
2013-11-08 13:10:00,47.6,31.3,29.88,NW,326,2.0,15.0,53,0.00,,---,0.00,VWS V14.01,2013-11-08 18:10:00,
2013-11-08 13:15:00,47.4,31.1,29.88,North,9,2.0,9.0,53,0.00,,---,0.00,VWS V14.01,2013-11-08 18:15:00,
2013-11-08 13:20:00,47.0,31.2,29.88,NW,306,5.0,7.0,54,0.00,,---,0.00,VWS V14.01,2013-11-08 18:20:00,
2013-11-08 13:25:00,46.5,31.2,29.88,NNE,24,6.0,11.0,55,0.00,,---,0.00,VWS V14.01,2013-11-08 18:25:00,
2013-11-08 13:30:00,46.1,30.9,29.88,SW,235,0.0,11.0,55,0.00,,---,0.00,VWS V14.01,2013-11-08 18:30:00,
2013-11-08 13:40:00,45.8,31.5,29.89,SW,219,2.0,14.0,57,0.00,,---,0.00,VWS V14.01,2013-11-08 18:40:00,
2013-11-08 13:45:00,45.4,31.1,29.89,NNW,328,2.0,10.0,57,0.00,,---,0.00,VWS V14.01,2013-11-08 18:45:00,
2013-11-08 13:55:00,45.3,32.2,29.88,NNW,333,0.0,9.0,60,0.00,,---,0.00,VWS V14.01,2013-11-08 18:55:00,
2013-11-08 14:00:00,45.8,32.7,29.88,NNW,334,0.0,7.0,60,0.00,,---,0.00,VWS V14.01,2013-11-08 19:00:00,
2013-11-08 14:05:00,45.8,33.1,29.88,SW,233,0.0,7.0,61,0.00,,---,0.00,VWS V14.01,2013-11-08 19:05:00,
2013-11-08 14:10:00,45.6,31.3,29.89,WNW,295,3.0,5.0,57,0.00,,---,0.00,VWS V14.01,2013-11-08 19:10:00,
2013-11-08 14:15:00,45.6,30.4,29.89,NNE,30,0.0,9.0,55,0.00,,---,0.00,VWS V14.01,2013-11-08 19:15:00,
2013-11-08 14:20:00,45.7,30.0,29.89,SW,233,0.0,9.0,54,0.00,,---,0.00,VWS V14.01,2013-11-08 19:20:00,
2013-11-08 14:25:00,45.9,30.2,29.89,NNW,337,9.0,13.0,54,0.00,,---,0.00,VWS V14.01,2013-11-08 19:25:00,
2013-11-08 14:30:00,45.8,29.2,29.90,NW,314,2.0,15.0,52,0.00,,---,0.00,VWS V14.01,2013-11-08 19:30:00,
2013-11-08 14:35:00,45.5,29.8,29.90,NW,307,0.0,12.0,54,0.00,,---,0.00,VWS V14.01,2013-11-08 19:35:00,
2013-11-08 14:45:00,45.2,29.6,29.90,NE,35,5.0,10.0,54,0.00,,---,0.00,VWS V14.01,2013-11-08 19:45:00,
2013-11-08 14:50:00,45.3,29.2,29.90,NE,46,5.0,10.0,53,0.00,,---,0.00,VWS V14.01,2013-11-08 19:50:00,
2013-11-08 14:55:00,45.5,28.4,29.90,NNE,30,2.0,12.0,51,0.00,,---,0.00,VWS V14.01,2013-11-08 19:55:00,
2013-11-08 15:00:00,45.4,28.4,29.90,NW,309,3.0,14.0,51,0.00,,---,0.00,VWS V14.01,2013-11-08 20:00:00,
2013-11-08 15:05:00,45.2,28.2,29.91,NNE,15,4.0,15.0,51,0.00,,---,0.00,VWS V14.01,2013-11-08 20:05:00,
2013-11-08 15:10:00,45.0,28.0,29.91,NE,44,7.0,11.0,51,0.00,,---,0.00,VWS V14.01,2013-11-08 20:10:00,
2013-11-08 15:15:00,44.8,28.3,29.92,NW,315,4.0,14.0,52,0.00,,---,0.00,VWS V14.01,2013-11-08 20:15:00,
2013-11-08 15:20:00,44.6,28.5,29.92,NW,316,5.0,10.0,53,0.00,,---,0.00,VWS V14.01,2013-11-08 20:20:00,
2013-11-08 15:25:00,44.5,28.9,29.92,NNE,13,4.0,7.0,54,0.00,,---,0.00,VWS V14.01,2013-11-08 20:25:00,
2013-11-08 15:35:00,44.1,28.1,29.92,NE,52,4.0,12.0,53,0.00,,---,0.00,VWS V14.01,2013-11-08 20:35:00,
2013-11-08 15:40:00,43.9,27.9,29.93,North,6,1.0,13.0,53,0.00,,---,0.00,VWS V14.01,2013-11-08 20:40:00,
2013-11-08 15:45:00,43.6,27.6,29.93,West,266,3.0,12.0,53,0.00,,---,0.00,VWS V14.01,2013-11-08 20:45:00,
2013-11-08 15:55:00,43.3,26.4,29.93,East,92,3.0,12.0,51,0.00,,---,0.00,VWS V14.01,2013-11-08 20:55:00,
2013-11-08 16:00:00,43.1,26.2,29.93,South,188,1.0,12.0,51,0.00,,---,0.00,VWS V14.01,2013-11-08 21:00:00,
2013-11-08 16:05:00,43.0,26.6,29.94,East,90,1.0,15.0,52,0.00,,---,0.00,VWS V14.01,2013-11-08 21:05:00,
2013-11-08 16:10:00,42.9,26.5,29.94,SW,235,3.0,6.0,52,0.00,,---,0.00,VWS V14.01,2013-11-08 21:10:00,
2013-11-08 16:15:00,42.7,26.3,29.94,NW,313,2.0,4.0,52,0.00,,---,0.00,VWS V14.01,2013-11-08 21:15:00,
2013-11-08 16:20:00,42.6,26.7,29.94,NNW,347,7.0,10.0,53,0.00,,---,0.00,VWS V14.01,2013-11-08 21:20:00,
2013-11-08 16:25:00,42.6,26.2,29.95,East,96,2.0,9.0,52,0.00,,---,0.00,VWS V14.01,2013-11-08 21:25:00,
2013-11-08 16:35:00,42.7,25.4,29.95,NNW,340,4.0,14.0,50,0.00,,---,0.00,VWS V14.01,2013-11-08 21:35:00,
2013-11-08 16:40:00,42.6,25.3,29.95,North,8,0.0,11.0,50,0.00,,---,0.00,VWS V14.01,2013-11-08 21:40:00,
2013-11-08 16:45:00,42.3,25.9,29.95,NNE,15,2.0,12.0,52,0.00,,---,0.00,VWS V14.01,2013-11-08 21:45:00,
2013-11-08 16:50:00,42.1,26.2,29.95,North,359,6.0,7.0,53,0.00,,---,0.00,VWS V14.01,2013-11-08 21:50:00,
2013-11-08 16:55:00,41.8,26.4,29.96,West,273,1.0,9.0,54,0.00,,---,0.00,VWS V14.01,2013-11-08 21:55:00,
2013-11-08 17:00:00,41.6,26.2,29.96,NW,316,1.0,13.0,54,0.00,,---,0.00,VWS V14.01,2013-11-08 22:00:00,
2013-11-08 17:05:00,41.5,26.5,29.97,SW,232,5.0,13.0,55,0.00,,---,0.00,VWS V14.01,2013-11-08 22:05:00,
2013-11-08 17:15:00,41.1,26.6,29.98,West,281,0.0,9.0,56,0.00,,---,0.00,VWS V14.01,2013-11-08 22:15:00,
2013-11-08 17:20:00,41.0,27.0,29.98,NNE,17,6.0,12.0,57,0.00,,---,0.00,VWS V14.01,2013-11-08 22:20:00,
2013-11-08 17:25:00,40.9,26.9,29.98,NE,40,1.0,8.0,57,0.00,,---,0.00,VWS V14.01,2013-11-08 22:25:00,
2013-11-08 17:30:00,40.7,27.1,29.99,North,6,4.0,13.0,58,0.00,,---,0.00,VWS V14.01,2013-11-08 22:30:00,
2013-11-08 17:35:00,40.7,27.1,29.99,NNW,331,0.0,6.0,58,0.00,,---,0.00,VWS V14.01,2013-11-08 22:35:00,
2013-11-08 17:40:00,40.7,27.5,29.99,ENE,57,4.0,10.0,59,0.00,,---,0.00,VWS V14.01,2013-11-08 22:40:00,
2013-11-08 17:45:00,40.7,27.9,30.00,WNW,298,1.0,6.0,60,0.00,,---,0.00,VWS V14.01,2013-11-08 22:45:00,
2013-11-08 17:50:00,40.7,27.9,30.00,NNE,24,2.0,5.0,60,0.00,,---,0.00,VWS V14.01,2013-11-08 22:50:00,
2013-11-08 17:55:00,40.5,27.7,30.00,ESE,113,0.0,7.0,60,0.00,,---,0.00,VWS V14.01,2013-11-08 22:55:00,
2013-11-08 18:00:00,40.4,28.0,30.00,NNE,14,7.0,7.0,61,0.00,,---,0.00,VWS V14.01,2013-11-08 23:00:00,
2013-11-08 18:05:00,40.2,27.4,30.00,WNW,300,1.0,8.0,60,0.00,,---,0.00,VWS V14.01,2013-11-08 23:05:00,
2013-11-08 18:10:00,40.0,27.2,30.01,NNW,340,4.0,7.0,60,0.00,,---,0.00,VWS V14.01,2013-11-08 23:10:00,
2013-11-08 18:15:00,39.9,27.2,30.01,ESE,121,2.0,7.0,60,0.00,,---,0.00,VWS V14.01,2013-11-08 23:15:00,
2013-11-08 18:20:00,39.8,27.1,30.01,NW,304,7.0,9.0,60,0.00,,---,0.00,VWS V14.01,2013-11-08 23:20:00,
2013-11-08 18:25:00,39.7,27.0,30.01,East,81,4.0,9.0,60,0.00,,---,0.00,VWS V14.01,2013-11-08 23:25:00,
2013-11-08 18:30:00,39.5,26.4,30.02,NNW,348,1.0,7.0,59,0.00,,---,0.00,VWS V14.01,2013-11-08 23:30:00,
2013-11-08 18:35:00,39.2,25.7,30.02,WNW,301,1.0,7.0,58,0.00,,---,0.00,VWS V14.01,2013-11-08 23:35:00,
2013-11-08 18:40:00,39.0,25.1,30.02,NW,314,1.0,8.0,57,0.00,,---,0.00,VWS V14.01,2013-11-08 23:40:00,
2013-11-08 18:45:00,38.9,25.0,30.03,ENE,59,0.0,7.0,57,0.00,,---,0.00,VWS V14.01,2013-11-08 23:45:00,
2013-11-08 18:50:00,38.8,24.5,30.03,North,6,1.0,12.0,56,0.00,,---,0.00,VWS V14.01,2013-11-08 23:50:00,
2013-11-08 18:55:00,38.5,24.2,30.03,North,11,2.0,6.0,56,0.00,,---,0.00,VWS V14.01,2013-11-08 23:55:00,
2013-11-08 19:00:00,38.4,23.7,30.03,SSW,210,0.0,5.0,55,0.00,,---,0.00,VWS V14.01,2013-11-09 00:00:00,
2013-11-08 19:10:00,38.2,23.5,30.03,WNW,299,4.0,6.0,55,0.00,,---,0.00,VWS V14.01,2013-11-09 00:10:00,
2013-11-08 19:15:00,38.1,22.9,30.04,WNW,300,2.0,10.0,54,0.00,,---,0.00,VWS V14.01,2013-11-09 00:15:00,
2013-11-08 19:20:00,38.0,23.3,30.04,NE,50,0.0,4.0,55,0.00,,---,0.00,VWS V14.01,2013-11-09 00:20:00,
2013-11-08 19:25:00,37.7,23.0,30.04,WNW,296,1.0,6.0,55,0.00,,---,0.00,VWS V14.01,2013-11-09 00:25:00,
2013-11-08 19:30:00,37.6,22.9,30.05,NE,35,3.0,4.0,55,0.00,,---,0.00,VWS V14.01,2013-11-09 00:30:00,
2013-11-08 19:35:00,37.5,22.8,30.05,NNE,17,4.0,9.0,55,0.00,,---,0.00,VWS V14.01,2013-11-09 00:35:00,
2013-11-08 19:40:00,37.4,23.1,30.05,NW,310,1.0,6.0,56,0.00,,---,0.00,VWS V14.01,2013-11-09 00:40:00,
2013-11-08 19:45:00,37.2,23.0,30.06,NNE,30,0.0,4.0,56,0.00,,---,0.00,VWS V14.01,2013-11-09 00:45:00,
2013-11-08 19:50:00,36.9,23.1,30.06,NW,321,1.0,2.0,57,0.00,,---,0.00,VWS V14.01,2013-11-09 00:50:00,
2013-11-08 19:55:00,36.7,22.5,30.06,West,262,0.0,4.0,56,0.00,,---,0.00,VWS V14.01,2013-11-09 00:55:00,
2013-11-08 20:00:00,36.5,22.7,30.06,ENE,74,0.0,2.0,57,0.00,,---,0.00,VWS V14.01,2013-11-09 01:00:00,
2013-11-08 20:05:00,36.3,22.5,30.06,NNE,18,1.0,2.0,57,0.00,,---,0.00,VWS V14.01,2013-11-09 01:05:00,
2013-11-08 20:10:00,36.2,22.9,30.06,ENE,59,2.0,4.0,58,0.00,,---,0.00,VWS V14.01,2013-11-09 01:10:00,
2013-11-08 20:15:00,36.1,22.8,30.06,NE,35,2.0,3.0,58,0.00,,---,0.00,VWS V14.01,2013-11-09 01:15:00,
2013-11-08 20:20:00,36.3,22.5,30.06,North,6,3.0,5.0,57,0.00,,---,0.00,VWS V14.01,2013-11-09 01:20:00,
2013-11-08 20:25:00,36.4,22.6,30.06,WNW,289,0.0,7.0,57,0.00,,---,0.00,VWS V14.01,2013-11-09 01:25:00,
2013-11-08 20:30:00,36.4,23.0,30.06,WNW,295,3.0,4.0,58,0.00,,---,0.00,VWS V14.01,2013-11-09 01:30:00,
2013-11-08 20:35:00,36.3,22.5,30.06,North,358,0.0,3.0,57,0.00,,---,0.00,VWS V14.01,2013-11-09 01:35:00,
2013-11-08 20:40:00,36.3,22.5,30.06,North,11,0.0,6.0,57,0.00,,---,0.00,VWS V14.01,2013-11-09 01:40:00,
2013-11-08 20:45:00,36.1,22.4,30.06,WNW,292,0.0,5.0,57,0.00,,---,0.00,VWS V14.01,2013-11-09 01:45:00,
2013-11-08 20:50:00,36.0,22.7,30.07,ENE,59,0.0,3.0,58,0.00,,---,0.00,VWS V14.01,2013-11-09 01:50:00,
2013-11-08 20:55:00,35.8,22.5,30.07,North,354,0.0,1.0,58,0.00,,---,0.00,VWS V14.01,2013-11-09 01:55:00,
2013-11-08 21:00:00,35.6,22.3,30.07,WNW,282,0.0,3.0,58,0.00,,---,0.00,VWS V14.01,2013-11-09 02:00:00,
2013-11-08 21:05:00,35.5,22.6,30.07,ESE,114,0.0,2.0,59,0.00,,---,0.00,VWS V14.01,2013-11-09 02:05:00,
2013-11-08 21:10:00,35.4,22.1,30.08,WNW,286,0.0,3.0,58,0.00,,---,0.00,VWS V14.01,2013-11-09 02:10:00,
2013-11-08 21:15:00,35.3,22.8,30.08,WNW,286,0.0,1.0,60,0.00,,---,0.00,VWS V14.01,2013-11-09 02:15:00,
2013-11-08 21:20:00,35.0,22.9,30.08,WNW,286,0.0,0.0,61,0.00,,---,0.00,VWS V14.01,2013-11-09 02:20:00,
2013-11-08 21:25:00,34.4,23.1,30.08,WNW,286,0.0,1.0,63,0.00,,---,0.00,VWS V14.01,2013-11-09 02:25:00,
2013-11-08 21:30:00,34.1,23.2,30.08,WNW,286,0.0,0.0,64,0.00,,---,0.00,VWS V14.01,2013-11-09 02:30:00,
2013-11-08 21:40:00,33.2,22.7,30.08,WNW,286,0.0,0.0,65,0.00,,---,0.00,VWS V14.01,2013-11-09 02:40:00,
2013-11-08 21:45:00,32.8,22.7,30.09,WNW,286,0.0,1.0,66,0.00,,---,0.00,VWS V14.01,2013-11-09 02:45:00,
2013-11-08 21:50:00,32.4,22.7,30.09,West,273,1.0,2.0,67,0.00,,---,0.00,VWS V14.01,2013-11-09 02:50:00,
2013-11-08 21:55:00,32.3,22.6,30.09,West,273,0.0,1.0,67,0.00,,---,0.00,VWS V14.01,2013-11-09 02:55:00,
2013-11-08 22:00:00,32.1,22.8,30.09,West,273,0.0,0.0,68,0.00,,---,0.00,VWS V14.01,2013-11-09 03:00:00,
2013-11-08 22:05:00,31.9,22.5,30.09,West,273,0.0,1.0,68,0.00,,---,0.00,VWS V14.01,2013-11-09 03:05:00,
2013-11-08 22:10:00,31.9,22.2,30.09,West,273,0.0,1.0,67,0.00,,---,0.00,VWS V14.01,2013-11-09 03:10:00,
2013-11-08 22:15:00,32.0,22.6,30.09,West,273,0.0,1.0,68,0.00,,---,0.00,VWS V14.01,2013-11-09 03:15:00,
2013-11-08 22:20:00,32.1,22.8,30.09,West,273,0.0,2.0,68,0.00,,---,0.00,VWS V14.01,2013-11-09 03:20:00,
2013-11-08 22:25:00,32.1,22.8,30.09,West,273,0.0,0.0,68,0.00,,---,0.00,VWS V14.01,2013-11-09 03:25:00,
2013-11-08 22:35:00,32.0,22.6,30.09,NNW,327,0.0,2.0,68,0.00,,---,0.00,VWS V14.01,2013-11-09 03:35:00,
2013-11-08 22:40:00,32.0,22.6,30.09,NNW,327,0.0,1.0,68,0.00,,---,0.00,VWS V14.01,2013-11-09 03:40:00,
2013-11-08 22:45:00,31.8,23.1,30.09,NNW,327,0.0,0.0,70,0.00,,---,0.00,VWS V14.01,2013-11-09 03:45:00,
2013-11-08 23:00:00,31.0,23.0,30.09,NNW,327,0.0,0.0,72,0.00,,---,0.00,VWS V14.01,2013-11-09 04:00:00,
2013-11-08 23:05:00,30.7,22.8,30.09,NNW,327,0.0,0.0,72,0.00,,---,0.00,VWS V14.01,2013-11-09 04:05:00,
2013-11-08 23:10:00,30.4,22.8,30.10,NNW,327,0.0,1.0,73,0.00,,---,0.00,VWS V14.01,2013-11-09 04:10:00,
2013-11-08 23:15:00,30.3,22.7,30.10,NNW,327,0.0,1.0,73,0.00,,---,0.00,VWS V14.01,2013-11-09 04:15:00,
2013-11-08 23:20:00,30.4,22.8,30.10,South,170,0.0,1.0,73,0.00,,---,0.00,VWS V14.01,2013-11-09 04:20:00,
2013-11-08 23:25:00,30.6,23.0,30.10,South,170,0.0,1.0,73,0.00,,---,0.00,VWS V14.01,2013-11-09 04:25:00,
2013-11-08 23:30:00,30.8,23.2,30.10,South,170,0.0,1.0,73,0.00,,---,0.00,VWS V14.01,2013-11-09 04:30:00,
2013-11-08 23:35:00,31.3,23.0,30.10,SW,235,0.0,5.0,71,0.00,,---,0.00,VWS V14.01,2013-11-09 04:35:00,
2013-11-08 23:40:00,31.6,23.0,30.10,East,92,0.0,2.0,70,0.00,,---,0.00,VWS V14.01,2013-11-09 04:40:00,
2013-11-08 23:45:00,32.1,23.4,30.11,WSW,243,1.0,4.0,70,0.00,,---,0.00,VWS V14.01,2013-11-09 04:45:00,
2013-11-08 23:50:00,32.8,23.8,30.11,ENE,60,0.0,2.0,69,0.00,,---,0.00,VWS V14.01,2013-11-09 04:50:00,